contact:dominique.lefevre@mio.osupytheas.fr, maurice.libes@osupytheas.fr, didier.mallarino@osupytheas.fr
Project:EMSO http://www.emso-fr.org/EMSO-France
Depth: 2436.0 m
Title:EMSO Ligure Ouest : Data MII capteur AQUADOPP
Date,Latitude,Longitude,X_East,Y_North,Z_Up,Amplitude_X,Amplitude_Y,Amplitude_Z,Batterie,SoundSpeed,Heading,Pitch,Roll,Pressure,TIS,Speed,Direction
, degrees North, degrees East, m.s-1, m.s-1,m.s-1, 1, 1, 1, Volt, m.s-1, degree, degree, degree, dbar, degree_C, m.s-1, degree
2022-05-21T00:01:03,42.805,6.029,-0.029,0.004,0.017,107.0,106.0,103.0,13.4,1505.2,329.7,-0.7,1.8,2470.972,13.29,0.029,277.8
2022-05-21T00:04:03,42.805,6.029,-0.019,0.006,-0.005,107.0,105.0,103.0,13.4,1505.2,327.3,-0.8,1.8,2471.009,13.29,0.019,287.5
2022-05-21T00:07:03,42.805,6.029,-0.028,0.003,-0.044,106.0,108.0,103.0,13.4,1505.2,325.0,-0.8,1.8,2470.97,13.29,0.028,276.1
2022-05-21T00:10:03,42.805,6.029,-0.006,-0.001,-0.03,105.0,105.0,103.0,13.3,1505.2,329.2,-0.8,1.9,2470.974,13.29,0.006,260.5
2022-05-21T00:13:03,42.805,6.029,-0.011,-0.013,-0.042,106.0,105.0,104.0,13.4,1505.2,330.7,-0.8,1.8,2470.984,13.29,0.017,220.2
2022-05-21T00:16:03,42.805,6.029,-0.013,-0.027,-0.011,105.0,106.0,104.0,13.4,1505.2,327.8,-0.7,1.8,2470.971,13.29,0.029,205.7
2022-05-21T00:19:03,42.805,6.029,-0.046,-0.012,-0.011,106.0,106.0,104.0,13.3,1505.2,324.3,-0.7,1.8,2470.985,13.29,0.047,255.4
2022-05-21T00:22:03,42.805,6.029,-0.018,-0.007,-0.002,106.0,106.0,103.0,13.3,1505.2,329.4,-0.7,1.8,2470.965,13.29,0.019,248.8
2022-05-21T00:25:03,42.805,6.029,-0.008,0.0,-0.004,107.0,105.0,103.0,13.3,1505.2,322.3,-0.8,1.8,2470.993,13.29,0.008,270.0
2022-05-21T00:28:03,42.805,6.029,-0.041,-0.002,-0.001,106.0,105.0,103.0,13.4,1505.2,324.7,-0.8,1.8,2470.983,13.29,0.041,267.2
2022-05-21T00:31:03,42.805,6.029,-0.031,-0.009,-0.016,106.0,106.0,103.0,13.3,1505.2,323.7,-0.8,1.8,2470.977,13.29,0.032,253.8
2022-05-21T00:34:03,42.805,6.029,-0.026,-0.016,-0.015,106.0,105.0,103.0,13.3,1505.2,323.8,-0.8,1.8,2470.963,13.29,0.03,238.4
2022-05-21T00:37:03,42.805,6.029,-0.018,-0.024,-0.031,107.0,106.0,104.0,13.4,1505.2,326.6,-0.7,1.8,2470.975,13.29,0.03,216.9
2022-05-21T00:40:03,42.805,6.029,-0.031,-0.013,0.004,108.0,107.0,103.0,13.4,1505.2,328.8,-0.7,1.8,2470.991,13.29,0.033,247.3
2022-05-21T00:43:03,42.805,6.029,-0.015,-0.002,-0.029,109.0,105.0,103.0,13.4,1505.2,321.4,-0.8,1.8,2470.961,13.29,0.015,262.4
2022-05-21T00:46:03,42.805,6.029,-0.026,-0.007,-0.034,107.0,106.0,104.0,13.3,1505.2,325.0,-0.7,1.8,2470.996,13.29,0.026,254.9
2022-05-21T00:49:03,42.805,6.029,-0.011,-0.007,-0.013,107.0,107.0,104.0,13.4,1505.2,329.1,-0.8,1.8,2470.993,13.29,0.013,237.5
2022-05-21T00:52:03,42.805,6.029,-0.048,0.005,-0.023,107.0,107.0,103.0,13.4,1505.2,330.5,-0.7,1.9,2470.938,13.29,0.048,275.9
2022-05-21T00:55:03,42.805,6.029,-0.015,-0.015,-0.006,105.0,106.0,104.0,13.4,1505.2,330.4,-0.8,1.8,2471.006,13.29,0.021,225.0
2022-05-21T00:58:03,42.805,6.029,-0.019,-0.016,-0.036,107.0,105.0,104.0,13.3,1505.2,329.8,-0.8,1.9,2470.982,13.29,0.024,229.9
2022-05-21T01:04:03,42.805,6.029,-0.033,0.0,-0.012,110.0,107.0,105.0,13.3,1505.2,327.9,-0.8,1.8,2471.038,13.28,0.033,270.0
2022-05-21T01:07:03,42.805,6.029,-0.035,0.0,-0.008,107.0,106.0,103.0,13.4,1505.2,333.4,-0.7,1.8,2470.973,13.28,0.035,270.0
2022-05-21T01:10:03,42.805,6.029,-0.033,-0.015,-0.014,106.0,104.0,103.0,13.3,1505.2,323.2,-0.8,1.8,2470.976,13.28,0.036,245.6
2022-05-21T01:13:03,42.805,6.029,0.001,0.0,-0.013,106.0,106.0,104.0,13.3,1505.2,324.0,-0.8,1.8,2470.979,13.28,0.001,90.0
2022-05-21T01:16:03,42.805,6.029,-0.042,0.001,-0.013,106.0,106.0,104.0,13.3,1505.2,326.1,-0.7,1.8,2470.967,13.28,0.042,271.4
2022-05-21T01:19:03,42.805,6.029,-0.034,0.005,-0.004,106.0,105.0,104.0,13.4,1505.2,326.4,-0.8,1.8,2470.978,13.29,0.034,278.4
2022-05-21T01:22:03,42.805,6.029,-0.011,-0.002,-0.037,106.0,105.0,104.0,13.3,1505.2,327.2,-0.8,1.8,2470.928,13.29,0.011,259.7
2022-05-21T01:25:03,42.805,6.029,-0.026,-0.013,-0.014,106.0,107.0,104.0,13.3,1505.2,327.5,-0.8,1.8,2470.955,13.29,0.029,243.4
2022-05-21T01:28:03,42.805,6.029,-0.023,-0.02,-0.031,107.0,107.0,106.0,13.4,1505.2,327.5,-0.7,1.8,2470.962,13.29,0.03,229.0
2022-05-21T01:31:03,42.805,6.029,-0.045,0.02,-0.005,108.0,105.0,104.0,13.4,1505.2,328.4,-0.8,1.8,2470.955,13.29,0.049,294.0
2022-05-21T01:34:03,42.805,6.029,-0.035,-0.005,0.013,107.0,105.0,104.0,13.3,1505.2,322.9,-0.8,1.8,2470.938,13.29,0.035,261.9
2022-05-21T01:37:03,42.805,6.029,-0.031,-0.017,-0.011,107.0,105.0,103.0,13.3,1505.2,330.7,-0.7,1.8,2470.965,13.29,0.035,241.3
2022-05-21T01:40:03,42.805,6.029,-0.015,0.002,-0.018,106.0,106.0,103.0,13.4,1505.2,323.4,-0.8,1.8,2470.955,13.29,0.015,277.6
2022-05-21T01:43:03,42.805,6.029,-0.015,-0.003,0.01,106.0,105.0,103.0,13.4,1505.2,329.4,-0.7,1.8,2470.961,13.29,0.015,258.7
2022-05-21T01:46:03,42.805,6.029,-0.028,0.005,0.003,106.0,107.0,104.0,13.4,1505.2,330.6,-0.8,1.8,2470.953,13.29,0.028,280.1
2022-05-21T01:49:03,42.805,6.029,-0.022,0.024,-0.043,106.0,105.0,103.0,13.4,1505.2,332.0,-0.8,1.8,2470.953,13.29,0.032,317.5
2022-05-21T01:52:03,42.805,6.029,-0.024,-0.006,0.005,108.0,105.0,103.0,13.4,1505.2,329.0,-0.8,1.8,2470.925,13.29,0.024,256.0
2022-05-21T01:55:03,42.805,6.029,-0.045,-0.002,-0.011,107.0,104.0,102.0,13.4,1505.2,323.8,-0.8,1.8,2470.956,13.29,0.045,267.5
2022-05-21T01:58:03,42.805,6.029,-0.042,-0.002,-0.025,106.0,105.0,104.0,13.4,1505.2,323.9,-0.7,1.8,2470.955,13.29,0.042,267.3
2022-05-21T02:04:03,42.805,6.029,-0.007,-0.01,-0.036,106.0,104.0,103.0,13.4,1505.2,326.3,-0.7,1.8,2471.014,13.28,0.012,215.0
2022-05-21T02:07:03,42.805,6.029,-0.028,0.003,0.0,105.0,106.0,103.0,13.4,1505.2,331.6,-0.8,1.8,2470.993,13.28,0.028,276.1
2022-05-21T02:10:03,42.805,6.029,-0.012,0.005,-0.027,105.0,104.0,102.0,13.4,1505.2,322.7,-0.8,1.8,2470.943,13.28,0.013,292.6
2022-05-21T02:13:03,42.805,6.029,-0.026,-0.017,-0.016,105.0,104.0,103.0,13.3,1505.2,323.0,-0.8,1.8,2470.934,13.28,0.031,236.8
2022-05-21T02:16:03,42.805,6.029,-0.035,0.003,-0.021,105.0,106.0,104.0,13.4,1505.2,328.9,-0.8,1.8,2470.966,13.28,0.035,274.9
2022-05-21T02:19:03,42.805,6.029,-0.028,0.003,-0.003,106.0,105.0,104.0,13.4,1505.2,323.9,-0.8,1.8,2470.943,13.29,0.028,276.1
2022-05-21T02:22:03,42.805,6.029,-0.015,-0.019,-0.013,106.0,105.0,103.0,13.4,1505.2,329.8,-0.8,1.8,2470.933,13.29,0.024,218.3
2022-05-21T02:25:03,42.805,6.029,-0.031,-0.017,-0.011,105.0,105.0,103.0,13.4,1505.2,322.2,-0.8,1.8,2470.938,13.29,0.035,241.3
2022-05-21T02:28:03,42.805,6.029,-0.044,0.002,-0.002,107.0,104.0,104.0,13.4,1505.2,331.2,-0.7,1.8,2470.912,13.29,0.044,272.6
2022-05-21T02:31:03,42.805,6.029,-0.035,-0.003,-0.017,105.0,105.0,104.0,13.4,1505.2,329.2,-0.8,1.8,2470.936,13.29,0.035,265.1
2022-05-21T02:34:03,42.805,6.029,-0.015,-0.002,-0.012,107.0,104.0,103.0,13.4,1505.2,325.5,-0.8,1.8,2470.935,13.29,0.015,262.4
2022-05-21T02:37:03,42.805,6.029,-0.031,-0.013,-0.025,107.0,105.0,102.0,13.4,1505.2,325.4,-0.7,1.8,2470.943,13.29,0.033,247.3
2022-05-21T02:40:03,42.805,6.029,-0.015,-0.015,-0.046,108.0,107.0,103.0,13.4,1505.2,322.5,-0.8,1.8,2470.941,13.29,0.021,225.0
2022-05-21T02:43:03,42.805,6.029,-0.034,-0.006,-0.042,107.0,106.0,103.0,13.4,1505.2,332.6,-0.7,1.8,2470.941,13.29,0.034,260.0
2022-05-21T02:46:03,42.805,6.029,-0.011,-0.005,-0.001,106.0,106.0,103.0,13.4,1505.2,322.7,-0.7,1.8,2470.974,13.29,0.012,245.6
2022-05-21T02:49:03,42.805,6.029,-0.013,-0.015,-0.014,108.0,107.0,103.0,13.4,1505.2,323.8,-0.8,1.8,2470.916,13.29,0.019,220.9
2022-05-21T02:52:03,42.805,6.029,-0.024,0.017,-0.019,106.0,105.0,102.0,13.4,1505.2,333.2,-0.8,1.8,2470.901,13.29,0.029,305.3
2022-05-21T02:55:03,42.805,6.029,-0.016,-0.007,-0.003,107.0,105.0,103.0,13.4,1505.2,325.5,-0.7,1.8,2470.93,13.29,0.017,246.4
2022-05-21T02:58:03,42.805,6.029,-0.028,-0.01,-0.001,106.0,105.0,105.0,13.4,1505.2,326.5,-0.7,1.8,2470.914,13.29,0.029,250.4
2022-05-21T03:04:03,42.805,6.029,-0.035,-0.001,-0.02,107.0,104.0,102.0,13.4,1505.2,332.2,-0.8,1.8,2470.911,13.28,0.035,268.4
2022-05-21T03:07:03,42.805,6.029,-0.028,-0.008,-0.022,105.0,105.0,104.0,13.4,1505.2,325.8,-0.8,1.8,2470.956,13.28,0.029,254.1
2022-05-21T03:10:03,42.805,6.029,-0.059,-0.004,-0.026,106.0,105.0,103.0,13.3,1505.2,325.5,-0.8,1.8,2470.943,13.28,0.059,266.1
2022-05-21T03:13:03,42.805,6.029,-0.05,0.018,-0.005,105.0,105.0,103.0,13.4,1505.2,327.6,-0.8,1.8,2470.925,13.28,0.053,289.8
2022-05-21T03:16:03,42.805,6.029,-0.031,-0.018,-0.017,104.0,106.0,104.0,13.4,1505.2,325.1,-0.8,1.8,2470.895,13.28,0.035,239.9
2022-05-21T03:19:03,42.805,6.029,-0.04,-0.005,-0.039,105.0,104.0,103.0,13.3,1505.2,331.2,-0.8,1.8,2470.888,13.28,0.04,262.9
2022-05-21T03:22:03,42.805,6.029,-0.025,0.013,-0.001,106.0,105.0,103.0,13.4,1505.2,327.7,-0.7,1.8,2470.87,13.29,0.028,297.5
2022-05-21T03:25:03,42.805,6.029,-0.038,-0.002,0.001,106.0,104.0,103.0,13.4,1505.2,322.8,-0.8,1.8,2470.897,13.29,0.038,267.0
2022-05-21T03:28:03,42.805,6.029,-0.03,0.007,-0.02,107.0,104.0,103.0,13.3,1505.2,326.1,-0.8,1.8,2470.892,13.29,0.03,283.1
2022-05-21T03:31:03,42.805,6.029,-0.033,-0.012,-0.032,105.0,106.0,105.0,13.3,1505.2,322.2,-0.8,1.8,2470.922,13.29,0.035,250.0
2022-05-21T03:34:03,42.805,6.029,-0.022,0.022,-0.003,107.0,107.0,105.0,13.3,1505.2,332.1,-0.7,1.8,2470.915,13.29,0.031,315.0
2022-05-21T03:37:03,42.805,6.029,-0.046,0.009,-0.035,108.0,105.0,103.0,13.4,1505.2,328.2,-0.8,1.8,2470.935,13.29,0.046,281.1
2022-05-21T03:40:03,42.805,6.029,-0.04,-0.004,-0.022,106.0,109.0,103.0,13.4,1505.2,329.1,-0.7,1.8,2470.918,13.29,0.04,264.3
2022-05-21T03:43:03,42.805,6.029,-0.026,0.005,0.005,106.0,105.0,104.0,13.3,1505.2,323.3,-0.8,1.9,2470.892,13.29,0.026,280.9
2022-05-21T03:46:03,42.805,6.029,-0.013,0.0,0.006,106.0,106.0,103.0,13.3,1505.2,322.2,-0.7,1.8,2470.91,13.29,0.013,270.0
2022-05-21T03:49:03,42.805,6.029,-0.028,0.012,0.0,106.0,106.0,106.0,13.4,1505.2,324.0,-0.7,1.8,2470.889,13.29,0.03,293.2
2022-05-21T03:52:03,42.805,6.029,-0.009,0.011,-0.01,107.0,105.0,105.0,13.4,1505.2,324.6,-0.8,1.8,2470.859,13.29,0.014,320.7
2022-05-21T03:55:03,42.805,6.029,-0.064,-0.01,-0.001,106.0,105.0,103.0,13.4,1505.2,323.8,-0.8,1.8,2470.905,13.29,0.064,261.1
2022-05-21T03:58:03,42.805,6.029,-0.036,-0.009,-0.013,107.0,106.0,103.0,13.3,1505.2,330.0,-0.8,1.8,2470.866,13.29,0.037,256.0
2022-05-21T04:04:03,42.805,6.029,-0.014,0.016,-0.002,107.0,105.0,102.0,13.3,1505.2,328.1,-0.8,1.8,2470.913,13.28,0.021,318.8
2022-05-21T04:07:03,42.805,6.029,-0.04,-0.009,-0.053,106.0,105.0,104.0,13.3,1505.2,321.9,-0.8,1.8,2470.882,13.28,0.041,257.3
2022-05-21T04:10:03,42.805,6.029,-0.029,0.027,-0.018,107.0,106.0,103.0,13.4,1505.2,331.6,-0.8,1.8,2470.912,13.28,0.039,313.0
2022-05-21T04:13:03,42.805,6.029,-0.017,0.01,-0.035,106.0,106.0,106.0,13.4,1505.2,323.5,-0.7,1.8,2470.885,13.28,0.019,300.5
2022-05-21T04:16:03,42.805,6.029,-0.04,-0.01,-0.045,106.0,105.0,103.0,13.4,1505.2,323.3,-0.8,1.8,2470.852,13.29,0.041,256.0
2022-05-21T04:19:03,42.805,6.029,-0.017,0.0,-0.013,107.0,105.0,105.0,13.4,1505.2,325.4,-0.7,1.8,2470.883,13.29,0.017,270.0
2022-05-21T04:22:03,42.805,6.029,-0.032,0.002,-0.046,107.0,106.0,104.0,13.4,1505.2,331.8,-0.8,1.8,2470.888,13.29,0.032,273.6
2022-05-21T04:25:03,42.805,6.029,-0.035,0.021,-0.022,108.0,107.0,105.0,13.4,1505.2,331.6,-0.7,1.8,2470.875,13.29,0.04,301.0
2022-05-21T04:28:03,42.805,6.029,-0.038,0.006,-0.042,106.0,106.0,103.0,13.3,1505.2,328.2,-0.8,1.8,2470.875,13.29,0.038,279.0
2022-05-21T04:31:03,42.805,6.029,-0.035,0.017,-0.018,108.0,106.0,104.0,13.4,1505.2,328.9,-0.8,1.8,2470.896,13.29,0.038,295.9
2022-05-21T04:34:03,42.805,6.029,-0.008,0.005,-0.019,108.0,107.0,105.0,13.4,1505.2,321.9,-0.8,1.8,2470.844,13.29,0.009,302.0
2022-05-21T04:37:03,42.805,6.029,-0.031,0.017,0.0,107.0,106.0,105.0,13.4,1505.2,320.8,-0.8,1.8,2470.833,13.29,0.035,298.7
2022-05-21T04:40:03,42.805,6.029,-0.022,-0.003,-0.019,107.0,106.0,104.0,13.3,1505.2,322.3,-0.8,1.8,2470.832,13.29,0.022,262.2
2022-05-21T04:43:03,42.805,6.029,-0.003,0.0,0.0,106.0,106.0,103.0,13.3,1505.2,323.0,-0.8,1.8,2470.856,13.29,0.003,270.0
2022-05-21T04:46:03,42.805,6.029,-0.04,0.003,0.009,106.0,106.0,104.0,13.4,1505.2,322.0,-0.8,1.8,2470.845,13.29,0.04,274.3
2022-05-21T04:49:03,42.805,6.029,-0.032,0.006,-0.035,106.0,106.0,103.0,13.4,1505.2,328.1,-0.8,1.8,2470.842,13.29,0.032,280.6
2022-05-21T04:52:03,42.805,6.029,-0.005,0.005,-0.015,106.0,106.0,103.0,13.4,1505.2,326.1,-0.7,1.8,2470.861,13.29,0.007,315.0
2022-05-21T04:55:03,42.805,6.029,-0.034,0.033,-0.013,108.0,105.0,105.0,13.3,1505.2,330.9,-0.7,1.8,2470.869,13.29,0.047,314.1
2022-05-21T04:58:03,42.805,6.029,-0.046,0.01,-0.009,107.0,106.0,103.0,13.4,1505.2,324.8,-0.8,1.8,2470.826,13.29,0.047,282.3
2022-05-21T05:01:03,42.805,6.029,-0.045,0.011,-0.024,106.0,106.0,103.0,13.3,1505.2,326.1,-0.8,1.8,2470.879,13.29,0.046,283.7
2022-05-21T05:04:03,42.805,6.029,-0.029,0.029,-0.015,106.0,105.0,104.0,13.4,1505.2,329.4,-0.8,1.8,2470.826,13.29,0.041,315.0
2022-05-21T05:07:03,42.805,6.029,-0.033,0.02,-0.021,107.0,105.0,103.0,13.4,1505.2,327.2,-0.8,1.8,2470.807,13.29,0.038,301.2
2022-05-21T05:10:03,42.805,6.029,-0.024,0.001,0.001,106.0,106.0,103.0,13.4,1505.2,324.2,-0.8,1.8,2470.875,13.29,0.024,272.4
2022-05-21T05:13:03,42.805,6.029,-0.001,0.0,-0.009,107.0,106.0,104.0,13.4,1505.2,328.6,-0.7,1.8,2470.838,13.29,0.001,270.0
2022-05-21T05:16:03,42.805,6.029,-0.027,0.006,-0.01,106.0,106.0,104.0,13.3,1505.2,331.7,-0.8,1.8,2470.823,13.29,0.027,282.5
2022-05-21T05:19:03,42.805,6.029,-0.033,0.001,-0.017,108.0,106.0,103.0,13.4,1505.2,329.6,-0.8,1.8,2470.829,13.29,0.033,271.7
2022-05-21T05:22:03,42.805,6.029,-0.039,0.007,-0.012,106.0,105.0,104.0,13.4,1505.2,327.0,-0.8,1.8,2470.807,13.29,0.039,280.2
2022-05-21T05:25:03,42.805,6.029,-0.039,0.014,-0.027,107.0,105.0,105.0,13.4,1505.2,322.6,-0.7,1.8,2470.831,13.29,0.041,289.7
2022-05-21T05:28:03,42.805,6.029,-0.039,0.023,-0.032,105.0,106.0,104.0,13.4,1505.2,328.9,-0.7,1.9,2470.843,13.29,0.045,300.5
2022-05-21T05:31:03,42.805,6.029,-0.019,0.006,-0.007,107.0,105.0,104.0,13.4,1505.2,325.5,-0.8,1.8,2470.84,13.29,0.019,287.5
2022-05-21T05:34:03,42.805,6.029,-0.021,0.012,-0.018,107.0,106.0,103.0,13.4,1505.2,326.9,-0.7,1.9,2470.856,13.29,0.024,299.7
2022-05-21T05:37:03,42.805,6.029,-0.018,-0.001,-0.024,108.0,105.0,103.0,13.3,1505.2,322.3,-0.8,1.9,2470.824,13.29,0.018,266.8
2022-05-21T05:40:03,42.805,6.029,-0.028,0.013,-0.025,107.0,108.0,102.0,13.4,1505.2,328.1,-0.8,1.8,2470.831,13.29,0.03,294.9
2022-05-21T05:43:03,42.805,6.029,-0.029,0.028,-0.013,108.0,106.0,103.0,13.3,1505.2,330.2,-0.8,1.8,2470.829,13.29,0.04,314.0
2022-05-21T05:46:03,42.805,6.029,-0.036,0.0,-0.026,107.0,107.0,103.0,13.3,1505.2,333.2,-0.8,1.8,2470.826,13.29,0.036,270.0
2022-05-21T05:49:03,42.805,6.029,-0.028,-0.001,-0.009,106.0,106.0,103.0,13.4,1505.2,329.9,-0.7,1.8,2470.788,13.29,0.028,268.0
2022-05-21T05:52:03,42.805,6.029,-0.03,0.011,-0.014,106.0,108.0,104.0,13.4,1505.2,324.7,-0.8,1.9,2470.825,13.29,0.031,290.1
2022-05-21T05:55:03,42.805,6.029,-0.024,0.013,-0.015,107.0,106.0,103.0,13.4,1505.2,325.4,-0.7,1.8,2470.832,13.29,0.027,298.4
2022-05-21T05:58:03,42.805,6.029,-0.029,0.009,-0.027,109.0,106.0,105.0,13.4,1505.2,325.5,-0.8,1.8,2470.816,13.29,0.03,287.2
2022-05-21T07:04:03,42.805,6.029,-0.02,0.014,-0.031,106.0,107.0,103.0,13.3,1505.1,325.2,-0.7,1.8,2471.272,13.27,0.024,305.0
2022-05-21T07:07:03,42.805,6.029,-0.009,0.009,-0.002,107.0,106.0,103.0,13.4,1505.2,324.5,-0.7,1.8,2471.204,13.28,0.012,315.0
2022-05-21T07:10:03,42.805,6.029,-0.039,-0.003,-0.026,107.0,105.0,104.0,13.3,1505.2,324.1,-0.8,1.8,2471.135,13.28,0.039,265.6
2022-05-21T07:13:03,42.805,6.029,-0.028,-0.005,0.002,106.0,106.0,104.0,13.3,1505.2,328.8,-0.8,1.8,2471.14,13.28,0.028,259.9
2022-05-21T07:16:03,42.805,6.029,-0.033,-0.013,-0.011,105.0,106.0,104.0,13.4,1505.2,324.8,-0.8,1.8,2471.077,13.28,0.035,248.5
2022-05-21T07:19:03,42.805,6.029,-0.018,0.018,-0.028,106.0,106.0,104.0,13.3,1505.2,327.0,-0.8,1.8,2471.036,13.28,0.025,315.0
2022-05-21T07:22:03,42.805,6.029,-0.016,-0.004,-0.014,106.0,105.0,103.0,13.4,1505.2,322.0,-0.7,1.8,2471.053,13.29,0.016,256.0
2022-05-21T07:25:03,42.805,6.029,-0.014,0.004,-0.019,105.0,105.0,103.0,13.3,1505.2,324.5,-0.7,1.8,2470.999,13.29,0.014,285.9
2022-05-21T07:28:03,42.805,6.029,-0.014,-0.001,-0.042,105.0,104.0,103.0,13.3,1505.2,329.4,-0.7,1.9,2470.995,13.29,0.014,265.9
2022-05-21T07:31:03,42.805,6.029,-0.028,0.003,-0.033,106.0,105.0,103.0,13.4,1505.2,326.7,-0.8,1.8,2470.959,13.29,0.028,276.1
2022-05-21T07:34:03,42.805,6.029,-0.007,-0.004,-0.022,107.0,106.0,104.0,13.3,1505.2,325.1,-0.7,1.8,2470.928,13.29,0.008,240.3
2022-05-21T07:37:03,42.805,6.029,-0.021,0.004,-0.026,106.0,104.0,102.0,13.4,1505.2,326.9,-0.7,1.8,2470.945,13.29,0.021,280.8
2022-05-21T07:40:03,42.805,6.029,-0.019,0.009,-0.017,106.0,108.0,105.0,13.4,1505.2,327.0,-0.8,1.8,2470.877,13.29,0.021,295.3
2022-05-21T07:43:03,42.805,6.029,-0.009,-0.005,-0.005,106.0,107.0,103.0,13.3,1505.2,325.4,-0.8,1.8,2470.909,13.29,0.01,240.9
2022-05-21T07:46:03,42.805,6.029,-0.007,0.002,-0.023,107.0,105.0,107.0,13.4,1505.2,323.1,-0.7,1.8,2470.9,13.29,0.007,285.9
2022-05-21T07:49:03,42.805,6.029,-0.018,0.0,0.016,106.0,106.0,103.0,13.3,1505.2,327.9,-0.8,1.8,2470.909,13.29,0.018,270.0
2022-05-21T07:52:03,42.805,6.029,-0.009,0.007,-0.028,107.0,106.0,102.0,13.3,1505.2,325.5,-0.7,1.8,2470.877,13.29,0.011,307.9
2022-05-21T07:55:03,42.805,6.029,-0.032,0.012,-0.004,106.0,107.0,105.0,13.4,1505.2,327.0,-0.7,1.8,2470.877,13.29,0.034,290.6
2022-05-21T07:58:03,42.805,6.029,-0.024,-0.021,-0.034,107.0,105.0,103.0,13.4,1505.2,327.4,-0.8,1.8,2470.873,13.29,0.031,228.8
2022-05-21T08:04:03,42.805,6.029,-0.019,-0.007,-0.039,107.0,106.0,105.0,13.3,1505.2,325.5,-0.7,1.8,2470.885,13.28,0.02,249.8
2022-05-21T08:07:03,42.805,6.029,-0.023,-0.015,-0.036,106.0,106.0,102.0,13.4,1505.2,324.7,-0.8,1.8,2470.835,13.28,0.027,236.9
2022-05-21T08:10:03,42.805,6.029,-0.011,-0.001,-0.009,106.0,107.0,102.0,13.4,1505.2,326.0,-0.7,1.8,2470.882,13.29,0.011,264.8
2022-05-21T08:13:03,42.805,6.029,-0.017,0.0,0.007,108.0,105.0,103.0,13.4,1505.2,332.4,-0.8,1.8,2470.856,13.29,0.017,270.0
2022-05-21T08:16:03,42.805,6.029,-0.025,0.0,-0.024,105.0,106.0,105.0,13.4,1505.2,323.5,-0.7,1.9,2470.857,13.29,0.025,270.0
2022-05-21T08:19:03,42.805,6.029,-0.006,-0.01,-0.011,107.0,106.0,104.0,13.4,1505.2,324.4,-0.8,1.8,2470.812,13.29,0.011,211.0
2022-05-21T08:22:03,42.805,6.029,-0.019,-0.006,-0.011,106.0,105.0,105.0,13.3,1505.2,325.9,-0.7,1.8,2470.857,13.29,0.019,252.5
2022-05-21T08:25:03,42.805,6.029,-0.003,0.0,0.004,106.0,105.0,103.0,13.4,1505.2,328.3,-0.8,1.8,2470.852,13.29,0.003,270.0
2022-05-21T08:28:03,42.805,6.029,-0.032,0.003,-0.006,107.0,105.0,103.0,13.4,1505.2,321.7,-0.8,1.8,2470.865,13.29,0.032,275.4
2022-05-21T08:31:03,42.805,6.029,-0.014,-0.003,-0.025,106.0,107.0,103.0,13.4,1505.2,330.0,-0.8,1.9,2470.851,13.29,0.014,257.9
2022-05-21T08:34:03,42.805,6.029,-0.033,-0.008,-0.005,106.0,106.0,103.0,13.3,1505.2,328.9,-0.8,1.8,2470.868,13.29,0.033,256.4
2022-05-21T08:37:03,42.805,6.029,-0.017,-0.013,-0.005,106.0,105.0,104.0,13.4,1505.2,329.0,-0.7,1.8,2470.858,13.29,0.021,232.6
2022-05-21T08:40:03,42.805,6.029,-0.011,-0.004,-0.033,106.0,106.0,103.0,13.4,1505.2,329.6,-0.8,1.8,2470.848,13.29,0.011,250.0
2022-05-21T08:43:03,42.805,6.029,-0.037,0.003,-0.007,107.0,106.0,102.0,13.4,1505.2,327.5,-0.8,1.8,2470.871,13.29,0.037,274.6
2022-05-21T08:46:03,42.805,6.029,0.001,-0.006,0.002,106.0,107.0,102.0,13.4,1505.2,330.1,-0.7,1.8,2470.847,13.29,0.006,170.5
2022-05-21T08:49:03,42.805,6.029,-0.014,0.009,-0.016,107.0,107.0,103.0,13.4,1505.2,328.5,-0.8,1.8,2470.842,13.29,0.016,302.7
2022-05-21T08:52:03,42.805,6.029,-0.027,-0.013,0.005,106.0,105.0,104.0,13.4,1505.2,320.8,-0.7,1.8,2470.865,13.29,0.029,244.3
2022-05-21T08:55:03,42.805,6.029,-0.011,-0.009,-0.029,106.0,106.0,103.0,13.4,1505.2,326.7,-0.7,1.9,2470.845,13.29,0.014,230.7
2022-05-21T08:58:03,42.805,6.029,-0.011,-0.016,-0.031,106.0,106.0,102.0,13.4,1505.2,327.9,-0.8,1.8,2470.842,13.29,0.019,214.5
2022-05-21T09:04:03,42.805,6.029,-0.026,-0.021,0.009,106.0,105.0,103.0,13.4,1505.2,324.4,-0.8,1.8,2470.885,13.28,0.033,231.1
2022-05-21T09:07:03,42.805,6.029,-0.024,0.015,-0.033,106.0,104.0,102.0,13.3,1505.2,325.0,-0.8,1.8,2470.889,13.28,0.028,302.0
2022-05-21T09:10:03,42.805,6.029,-0.019,-0.005,-0.03,107.0,105.0,103.0,13.3,1505.2,325.4,-0.8,1.8,2470.904,13.28,0.019,255.3
2022-05-21T09:13:03,42.805,6.029,-0.009,-0.02,-0.037,105.0,105.0,104.0,13.4,1505.2,326.6,-0.8,1.8,2470.857,13.29,0.021,204.2
2022-05-21T09:16:03,42.805,6.029,-0.029,0.004,-0.034,105.0,105.0,104.0,13.4,1505.2,328.2,-0.7,1.8,2470.849,13.29,0.029,277.8
2022-05-21T09:19:03,42.805,6.029,-0.024,0.004,-0.036,105.0,106.0,102.0,13.3,1505.2,324.7,-0.7,1.8,2470.853,13.29,0.024,279.5
2022-05-21T09:22:03,42.805,6.029,-0.013,-0.003,-0.01,109.0,105.0,103.0,13.4,1505.2,326.3,-0.8,1.8,2470.853,13.29,0.013,257.0
2022-05-21T09:25:03,42.805,6.029,-0.016,-0.011,-0.017,107.0,104.0,103.0,13.4,1505.2,326.0,-0.7,1.9,2470.871,13.29,0.019,235.5
2022-05-21T09:28:03,42.805,6.029,-0.007,-0.013,-0.012,105.0,105.0,104.0,13.4,1505.2,324.2,-0.7,1.8,2470.86,13.29,0.014,208.3
2022-05-21T09:31:03,42.805,6.029,-0.021,-0.002,-0.007,106.0,105.0,104.0,13.3,1505.2,329.7,-0.8,1.8,2470.854,13.29,0.021,264.6
2022-05-21T09:34:03,42.805,6.029,-0.01,0.015,-0.011,106.0,105.0,104.0,13.3,1505.2,321.8,-0.8,1.8,2470.847,13.29,0.018,326.3
2022-05-21T09:37:03,42.805,6.029,-0.013,-0.017,-0.032,106.0,107.0,103.0,13.4,1505.2,331.7,-0.8,1.8,2470.86,13.29,0.021,217.4
2022-05-21T09:40:03,42.805,6.029,-0.003,-0.014,-0.021,105.0,106.0,104.0,13.4,1505.2,330.1,-0.8,1.9,2470.841,13.29,0.014,192.1
2022-05-21T09:43:03,42.805,6.029,-0.019,-0.008,-0.033,107.0,105.0,103.0,13.3,1505.2,326.3,-0.7,1.8,2470.863,13.29,0.02,247.2
2022-05-21T09:46:03,42.805,6.029,-0.024,-0.011,-0.009,106.0,106.0,105.0,13.3,1505.2,322.6,-0.7,1.8,2470.844,13.29,0.026,245.4
2022-05-21T09:49:03,42.805,6.029,-0.01,-0.008,-0.035,106.0,105.0,103.0,13.4,1505.2,322.0,-0.8,1.8,2470.85,13.29,0.012,231.3
2022-05-21T09:52:03,42.805,6.029,-0.018,-0.018,-0.029,107.0,104.0,103.0,13.3,1505.2,326.8,-0.7,1.8,2470.828,13.29,0.025,225.0
2022-05-21T09:55:03,42.805,6.029,-0.02,0.008,0.0,106.0,107.0,104.0,13.4,1505.2,326.1,-0.8,1.8,2470.808,13.29,0.021,291.8
2022-05-21T09:58:03,42.805,6.029,-0.028,-0.006,-0.008,106.0,104.0,104.0,13.3,1505.2,324.4,-0.7,1.8,2470.86,13.29,0.028,257.9
2022-05-21T10:04:03,42.805,6.029,-0.026,-0.019,-0.031,107.0,106.0,104.0,13.4,1505.2,324.7,-0.8,1.8,2470.877,13.28,0.032,233.8
2022-05-21T10:07:03,42.805,6.029,-0.027,0.001,-0.019,108.0,106.0,105.0,13.4,1505.2,332.1,-0.8,1.8,2470.829,13.28,0.027,272.1
2022-05-21T10:10:03,42.805,6.029,-0.018,0.026,-0.013,107.0,106.0,102.0,13.4,1505.2,330.6,-0.7,1.8,2470.841,13.29,0.031,325.3
2022-05-21T10:13:03,42.805,6.029,-0.026,-0.012,-0.01,107.0,106.0,103.0,13.3,1505.2,324.6,-0.7,1.8,2470.845,13.29,0.028,245.2
2022-05-21T10:16:03,42.805,6.029,-0.025,0.001,-0.015,107.0,105.0,104.0,13.4,1505.2,324.6,-0.8,1.8,2470.836,13.29,0.025,272.3
2022-05-21T10:19:03,42.805,6.029,0.003,-0.025,-0.01,105.0,105.0,103.0,13.4,1505.2,327.4,-0.8,1.8,2470.843,13.29,0.025,173.2
2022-05-21T10:22:03,42.805,6.029,-0.018,-0.018,-0.017,106.0,105.0,103.0,13.4,1505.2,328.1,-0.7,1.8,2470.846,13.29,0.025,225.0
2022-05-21T10:25:03,42.805,6.029,-0.018,-0.008,-0.009,106.0,105.0,103.0,13.4,1505.2,325.0,-0.8,1.8,2470.911,13.29,0.019,246.0
2022-05-21T10:28:03,42.805,6.029,-0.033,-0.011,-0.029,106.0,105.0,103.0,13.3,1505.2,325.7,-0.8,1.8,2470.869,13.29,0.034,251.6
2022-05-21T10:31:03,42.805,6.029,-0.013,0.009,0.009,108.0,104.0,104.0,13.4,1505.2,330.5,-0.7,1.8,2470.864,13.29,0.015,304.7
2022-05-21T10:34:03,42.805,6.029,-0.021,0.0,-0.034,105.0,106.0,103.0,13.4,1505.2,327.0,-0.8,1.8,2470.879,13.29,0.021,270.0
2022-05-21T10:37:03,42.805,6.029,-0.016,0.01,-0.005,106.0,105.0,104.0,13.3,1505.2,329.2,-0.8,1.8,2470.866,13.29,0.018,302.0
2022-05-21T10:40:03,42.805,6.029,-0.007,-0.005,-0.023,106.0,104.0,104.0,13.4,1505.2,322.2,-0.7,1.8,2470.851,13.29,0.008,234.5
2022-05-21T10:43:03,42.805,6.029,-0.011,-0.01,-0.02,107.0,106.0,104.0,13.3,1505.2,327.2,-0.8,1.8,2470.825,13.29,0.014,227.7
2022-05-21T10:46:03,42.805,6.029,-0.011,-0.01,-0.016,107.0,107.0,104.0,13.4,1505.2,325.7,-0.8,1.8,2470.833,13.29,0.014,227.7